Time,TemperatureF,DewpointF,PressureIn,WindDirection,WindDirectionDegrees,WindSpeedMPH,WindSpeedGustMPH,Humidity,HourlyPrecipIn,Conditions,Clouds,dailyrainin,SoftwareType,DateUTC
2013-08-28 00:01:00,65.2,65.2,29.88,ENE,73,0.0,0.0,100,0.00,,CLR,0.00,VWS V12.08,2013-08-28 04:01:00,
2013-08-28 00:02:00,65.2,65.2,29.88,ENE,73,0.0,0.0,100,0.00,,CLR,0.00,VWS V12.08,2013-08-28 04:02:00,
2013-08-28 00:07:00,65.2,65.2,29.88,ENE,73,0.0,0.0,100,0.00,,CLR,0.00,VWS V12.08,2013-08-28 04:07:00,
2013-08-28 00:12:00,65.0,65.0,29.88,ENE,73,0.0,0.0,100,0.00,,CLR,0.00,VWS V12.08,2013-08-28 04:12:00,
2013-08-28 00:15:00,65.0,65.0,29.88,ENE,73,0.0,0.0,100,0.00,,CLR,0.00,VWS V12.08,2013-08-28 04:15:00,
2013-08-28 00:20:00,64.8,64.8,29.88,ENE,73,0.0,0.0,100,0.00,,CLR,0.00,VWS V12.08,2013-08-28 04:20:00,
2013-08-28 00:25:00,64.7,64.7,29.88,ENE,73,0.0,0.0,100,0.00,,CLR,0.00,VWS V12.08,2013-08-28 04:25:00,
2013-08-28 00:30:00,64.7,64.7,29.88,ENE,73,0.0,0.0,100,0.00,,CLR,0.00,VWS V12.08,2013-08-28 04:30:00,
2013-08-28 00:35:00,64.5,64.5,29.88,ENE,73,0.0,0.0,100,0.00,,CLR,0.00,VWS V12.08,2013-08-28 04:35:00,
2013-08-28 00:40:00,64.5,64.5,29.88,ENE,73,0.0,0.0,100,0.00,,CLR,0.00,VWS V12.08,2013-08-28 04:40:00,
2013-08-28 00:45:00,64.3,64.3,29.87,ENE,73,0.0,0.0,100,0.00,,CLR,0.00,VWS V12.08,2013-08-28 04:45:00,
2013-08-28 00:50:00,64.3,64.3,29.87,ENE,73,0.0,0.0,100,0.00,,CLR,0.00,VWS V12.08,2013-08-28 04:50:00,
2013-08-28 00:55:00,64.3,64.3,29.87,ENE,73,0.0,0.0,100,0.00,,CLR,0.00,VWS V12.08,2013-08-28 04:55:00,
2013-08-28 01:00:00,64.2,64.2,29.87,ENE,73,0.0,0.0,100,0.00,,CLR,0.00,VWS V12.08,2013-08-28 05:00:00,
2013-08-28 01:05:00,64.2,64.2,29.87,ENE,73,0.0,0.0,100,0.00,,CLR,0.00,VWS V12.08,2013-08-28 05:05:00,
2013-08-28 01:10:00,64.2,64.2,29.87,ENE,73,0.0,0.0,100,0.00,,CLR,0.00,VWS V12.08,2013-08-28 05:10:00,
2013-08-28 01:15:00,64.0,64.0,29.86,ENE,73,0.0,0.0,100,0.00,,CLR,0.00,VWS V12.08,2013-08-28 05:15:00,
2013-08-28 01:20:00,64.0,64.0,29.86,ENE,73,0.0,0.0,100,0.00,,CLR,0.00,VWS V12.08,2013-08-28 05:20:00,
2013-08-28 01:25:00,64.0,64.0,29.86,ENE,73,0.0,0.0,100,0.00,,CLR,0.00,VWS V12.08,2013-08-28 05:25:00,
2013-08-28 01:30:00,64.0,64.0,29.86,ENE,73,0.0,0.0,100,0.00,,CLR,0.00,VWS V12.08,2013-08-28 05:30:00,
2013-08-28 01:35:00,64.0,64.0,29.86,ENE,73,0.0,0.0,100,0.00,,CLR,0.00,VWS V12.08,2013-08-28 05:35:00,
2013-08-28 01:40:00,63.9,63.9,29.86,ENE,73,0.0,0.0,100,0.00,,,0.00,VWS V12.08,2013-08-28 05:40:00,
2013-08-28 01:45:00,63.9,63.9,29.86,ENE,73,0.0,0.0,100,0.00,,,0.00,VWS V12.08,2013-08-28 05:45:00,
2013-08-28 01:50:00,63.9,63.9,29.86,ENE,73,0.0,0.0,100,0.00,,,0.00,VWS V12.08,2013-08-28 05:50:00,
2013-08-28 01:55:00,63.7,63.7,29.86,ENE,73,0.0,0.0,100,0.00,,,0.00,VWS V12.08,2013-08-28 05:55:00,
2013-08-28 02:00:00,63.5,63.5,29.86,ENE,73,0.0,0.0,100,0.00,,,0.00,VWS V12.08,2013-08-28 06:00:00,
2013-08-28 02:05:00,63.5,63.5,29.86,ENE,73,0.0,0.0,100,0.00,,,0.00,VWS V12.08,2013-08-28 06:05:00,
2013-08-28 02:10:00,63.5,63.5,29.86,ENE,73,0.0,0.0,100,0.00,,,0.00,VWS V12.08,2013-08-28 06:10:00,
2013-08-28 02:16:00,63.5,63.5,29.86,ENE,73,0.0,0.0,100,0.00,,,0.00,VWS V12.08,2013-08-28 06:16:00,
2013-08-28 02:21:00,63.5,63.5,29.86,ENE,73,0.0,0.0,100,0.00,,,0.00,VWS V12.08,2013-08-28 06:21:00,
2013-08-28 02:26:00,63.5,63.5,29.86,ENE,73,0.0,0.0,100,0.00,,,0.00,VWS V12.08,2013-08-28 06:26:00,
2013-08-28 02:31:00,63.4,63.4,29.86,ENE,73,0.0,0.0,100,0.00,,,0.00,VWS V12.08,2013-08-28 06:31:00,
2013-08-28 02:36:00,63.4,63.4,29.86,ENE,73,0.0,0.0,100,0.00,,,0.00,VWS V12.08,2013-08-28 06:36:00,
2013-08-28 02:41:00,63.5,63.5,29.86,ENE,73,0.0,0.0,100,0.00,,,0.00,VWS V12.08,2013-08-28 06:41:00,
2013-08-28 02:46:00,63.4,63.4,29.86,ENE,73,0.0,0.0,100,0.00,,,0.00,VWS V12.08,2013-08-28 06:46:00,
2013-08-28 02:51:00,63.4,63.4,29.86,ENE,73,0.0,0.0,100,0.00,,,0.00,VWS V12.08,2013-08-28 06:51:00,
2013-08-28 02:56:00,63.5,63.5,29.86,ENE,73,0.0,0.0,100,0.00,,,0.00,VWS V12.08,2013-08-28 06:56:00,
2013-08-28 03:01:00,63.9,63.9,29.86,ENE,73,0.0,0.0,100,0.00,,,0.00,VWS V12.08,2013-08-28 07:01:00,
2013-08-28 03:06:00,63.9,63.9,29.86,ENE,73,0.0,0.0,100,0.00,,,0.00,VWS V12.08,2013-08-28 07:06:00,
2013-08-28 03:11:00,63.7,63.7,29.86,ENE,73,0.0,0.0,100,0.00,,,0.00,VWS V12.08,2013-08-28 07:11:00,
2013-08-28 03:16:00,63.7,63.7,29.86,ENE,73,0.0,0.0,100,0.00,,,0.00,VWS V12.08,2013-08-28 07:16:00,
2013-08-28 03:21:00,63.5,63.5,29.86,ENE,73,0.0,0.0,100,0.00,,,0.00,VWS V12.08,2013-08-28 07:21:00,
2013-08-28 03:26:00,63.4,63.4,29.86,ENE,73,0.0,0.0,100,0.00,,,0.00,VWS V12.08,2013-08-28 07:26:00,
2013-08-28 03:31:00,63.2,63.2,29.86,ENE,73,0.0,0.0,100,0.00,,,0.00,VWS V12.08,2013-08-28 07:31:00,
2013-08-28 03:36:00,63.2,63.2,29.86,ENE,73,0.0,0.0,100,0.00,,,0.00,VWS V12.08,2013-08-28 07:36:00,
2013-08-28 03:41:00,63.2,63.2,29.86,ENE,73,0.0,0.0,100,0.00,,,0.00,VWS V12.08,2013-08-28 07:41:00,
2013-08-28 03:46:00,63.1,63.1,29.86,ENE,73,0.0,0.0,100,0.00,,,0.00,VWS V12.08,2013-08-28 07:46:00,
2013-08-28 03:51:00,62.9,62.9,29.86,ENE,73,0.0,0.0,100,0.00,,,0.00,VWS V12.08,2013-08-28 07:51:00,
2013-08-28 03:56:00,62.9,62.9,29.86,ENE,73,0.0,0.0,100,0.00,,,0.00,VWS V12.08,2013-08-28 07:56:00,
2013-08-28 04:01:00,62.9,62.9,29.86,ENE,73,0.0,0.0,100,0.00,,,0.00,VWS V12.08,2013-08-28 08:01:00,
2013-08-28 04:06:00,62.9,62.9,29.86,ENE,73,0.0,0.0,100,0.00,,,0.00,VWS V12.08,2013-08-28 08:06:00,
2013-08-28 04:11:00,62.7,62.7,29.86,ENE,73,0.0,0.0,100,0.00,,,0.00,VWS V12.08,2013-08-28 08:11:00,
2013-08-28 04:16:00,62.7,62.7,29.86,ENE,73,0.0,0.0,100,0.00,,,0.00,VWS V12.08,2013-08-28 08:16:00,
2013-08-28 04:21:00,63.1,63.1,29.86,ENE,73,0.0,0.0,100,0.00,,,0.00,VWS V12.08,2013-08-28 08:21:00,
2013-08-28 04:26:00,62.9,62.9,29.86,ENE,73,0.0,0.0,100,0.00,,,0.00,VWS V12.08,2013-08-28 08:26:00,
2013-08-28 04:31:00,62.7,62.7,29.86,ENE,73,0.0,0.0,100,0.00,,,0.00,VWS V12.08,2013-08-28 08:31:00,
2013-08-28 04:36:00,62.6,62.6,29.86,ENE,73,0.0,0.0,100,0.00,,,0.00,VWS V12.08,2013-08-28 08:36:00,
2013-08-28 04:41:00,62.6,62.6,29.86,ENE,73,0.0,0.0,100,0.00,,,0.00,VWS V12.08,2013-08-28 08:41:00,
2013-08-28 04:46:00,62.6,62.6,29.86,ENE,73,0.0,0.0,100,0.00,,,0.00,VWS V12.08,2013-08-28 08:46:00,
2013-08-28 04:51:00,62.6,62.6,29.86,ENE,73,0.0,0.0,100,0.00,,,0.00,VWS V12.08,2013-08-28 08:51:00,
2013-08-28 04:56:00,62.4,62.4,29.86,ENE,73,0.0,0.0,100,0.00,,,0.00,VWS V12.08,2013-08-28 08:56:00,
2013-08-28 05:01:00,62.4,62.4,29.87,ENE,73,0.0,0.0,100,0.00,,,0.00,VWS V12.08,2013-08-28 09:01:00,
2013-08-28 05:06:00,62.4,62.4,29.87,ENE,73,0.0,0.0,100,0.00,,,0.00,VWS V12.08,2013-08-28 09:06:00,
2013-08-28 05:11:00,62.3,62.3,29.87,ENE,73,0.0,0.0,100,0.00,,,0.00,VWS V12.08,2013-08-28 09:11:00,
2013-08-28 05:16:00,62.3,62.3,29.88,ENE,73,0.0,0.0,100,0.00,,,0.00,VWS V12.08,2013-08-28 09:16:00,
2013-08-28 05:21:00,62.3,62.3,29.88,ENE,73,0.0,0.0,100,0.00,,,0.00,VWS V12.08,2013-08-28 09:21:00,
2013-08-28 05:26:00,62.3,62.3,29.88,ENE,73,0.0,0.0,100,0.00,,,0.00,VWS V12.08,2013-08-28 09:26:00,
2013-08-28 05:31:00,62.3,62.3,29.88,ENE,73,0.0,0.0,100,0.00,,,0.00,VWS V12.08,2013-08-28 09:31:00,
2013-08-28 05:34:00,62.3,62.3,29.88,ENE,73,0.0,0.0,100,0.00,,,0.00,VWS V12.08,2013-08-28 09:34:00,
2013-08-28 05:39:00,62.3,62.3,29.88,ENE,73,0.0,0.0,100,0.00,,,0.00,VWS V12.08,2013-08-28 09:39:00,
2013-08-28 05:44:00,62.4,62.4,29.88,ENE,73,0.0,0.0,100,0.00,,,0.00,VWS V12.08,2013-08-28 09:44:00,
2013-08-28 05:49:00,62.4,62.4,29.88,ENE,73,0.0,0.0,100,0.00,,,0.00,VWS V12.08,2013-08-28 09:49:00,
2013-08-28 05:54:00,62.3,62.3,29.88,ENE,73,0.0,0.0,100,0.00,,,0.00,VWS V12.08,2013-08-28 09:54:00,
2013-08-28 05:59:00,62.3,62.3,29.88,ENE,73,0.0,0.0,100,0.00,,,0.00,VWS V12.08,2013-08-28 09:59:00,
2013-08-28 06:04:00,62.3,62.3,29.88,ENE,73,0.0,0.0,100,0.00,,,0.00,VWS V12.08,2013-08-28 10:04:00,
2013-08-28 06:09:00,62.1,62.1,29.88,ENE,73,0.0,0.0,100,0.00,,,0.00,VWS V12.08,2013-08-28 10:09:00,
2013-08-28 06:14:00,61.8,61.8,29.88,ENE,73,0.0,0.0,100,0.00,,,0.00,VWS V12.08,2013-08-28 10:14:00,
2013-08-28 06:19:00,61.6,61.6,29.88,ENE,73,0.0,0.0,100,0.00,,,0.00,VWS V12.08,2013-08-28 10:19:00,
2013-08-28 06:24:00,61.5,61.5,29.88,East,97,0.0,0.0,100,0.00,,,0.00,VWS V12.08,2013-08-28 10:24:00,
2013-08-28 06:29:00,61.3,61.3,29.89,ENE,71,0.0,0.0,100,0.00,,,0.00,VWS V12.08,2013-08-28 10:29:00,
2013-08-28 06:34:00,61.0,61.0,29.89,ENE,71,0.0,0.0,100,0.00,,,0.00,VWS V12.08,2013-08-28 10:34:00,
2013-08-28 06:39:00,60.9,60.9,29.89,ENE,71,0.0,0.0,100,0.00,,,0.00,VWS V12.08,2013-08-28 10:39:00,
2013-08-28 06:44:00,60.9,60.9,29.89,ENE,71,0.0,0.0,100,0.00,,,0.00,VWS V12.08,2013-08-28 10:44:00,
2013-08-28 06:49:00,60.9,60.9,29.89,ENE,71,0.0,0.0,100,0.00,,,0.00,VWS V12.08,2013-08-28 10:49:00,
2013-08-28 06:54:00,60.9,60.9,29.89,ENE,71,0.0,0.0,100,0.00,,,0.00,VWS V12.08,2013-08-28 10:54:00,
2013-08-28 06:59:00,60.9,60.9,29.89,ENE,71,0.0,0.0,100,0.00,,,0.00,VWS V12.08,2013-08-28 10:59:00,
2013-08-28 07:04:00,61.0,61.0,29.89,ENE,71,0.0,0.0,100,0.00,,,0.00,VWS V12.08,2013-08-28 11:04:00,
2013-08-28 07:09:00,61.2,61.2,29.89,ENE,71,0.0,0.0,100,0.00,,,0.00,VWS V12.08,2013-08-28 11:09:00,
2013-08-28 07:14:00,61.2,61.2,29.89,ENE,71,0.0,0.0,100,0.00,,,0.00,VWS V12.08,2013-08-28 11:14:00,
2013-08-28 07:19:00,61.3,61.3,29.89,ENE,71,0.0,0.0,100,0.00,,,0.00,VWS V12.08,2013-08-28 11:19:00,
2013-08-28 07:24:00,61.5,61.5,29.89,ENE,71,0.0,0.0,100,0.00,,,0.00,VWS V12.08,2013-08-28 11:24:00,
2013-08-28 07:29:00,61.6,61.6,29.89,ENE,71,0.0,0.0,100,0.00,,,0.00,VWS V12.08,2013-08-28 11:29:00,
2013-08-28 07:34:00,61.6,61.6,29.89,ENE,71,0.0,0.0,100,0.00,,,0.00,VWS V12.08,2013-08-28 11:34:00,
2013-08-28 07:39:00,62.0,62.0,29.89,ENE,71,0.0,0.0,100,0.00,,,0.00,VWS V12.08,2013-08-28 11:39:00,
2013-08-28 07:44:00,62.3,62.3,29.89,ENE,71,0.0,0.0,100,0.00,,,0.00,VWS V12.08,2013-08-28 11:44:00,
2013-08-28 07:49:00,62.6,62.6,29.89,ENE,71,0.0,0.0,100,0.00,,,0.00,VWS V12.08,2013-08-28 11:49:00,
2013-08-28 07:54:00,62.9,62.9,29.89,ENE,71,0.0,0.0,100,0.00,,,0.00,VWS V12.08,2013-08-28 11:54:00,
2013-08-28 07:59:00,63.5,63.5,29.89,ENE,71,0.0,0.0,100,0.00,,,0.00,VWS V12.08,2013-08-28 11:59:00,
2013-08-28 08:04:00,64.2,64.2,29.89,ENE,71,0.0,0.0,100,0.00,,,0.00,VWS V12.08,2013-08-28 12:04:00,
2013-08-28 08:09:00,64.3,64.3,29.89,ENE,71,0.0,0.0,100,0.00,,,0.00,VWS V12.08,2013-08-28 12:09:00,
2013-08-28 08:14:00,64.5,64.5,29.89,ENE,71,0.0,0.0,100,0.00,,,0.00,VWS V12.08,2013-08-28 12:14:00,
2013-08-28 08:19:00,64.5,64.5,29.89,ENE,71,0.0,0.0,100,0.00,,,0.00,VWS V12.08,2013-08-28 12:19:00,
2013-08-28 08:24:00,64.7,64.7,29.89,ENE,71,0.0,0.0,100,0.00,,,0.00,VWS V12.08,2013-08-28 12:24:00,
2013-08-28 08:29:00,65.0,65.0,29.89,ENE,71,0.0,0.0,100,0.00,,,0.00,VWS V12.08,2013-08-28 12:29:00,
2013-08-28 08:34:00,65.3,65.3,29.89,ENE,71,0.0,0.0,100,0.00,,,0.00,VWS V12.08,2013-08-28 12:34:00,
2013-08-28 08:39:00,66.0,66.0,29.89,ENE,71,0.0,0.0,100,0.00,,,0.00,VWS V12.08,2013-08-28 12:39:00,
2013-08-28 08:44:00,66.4,66.4,29.89,ENE,71,0.0,0.0,100,0.00,,,0.00,VWS V12.08,2013-08-28 12:44:00,
2013-08-28 08:50:00,66.8,66.8,29.89,ENE,71,0.0,0.0,100,0.00,,,0.00,VWS V12.08,2013-08-28 12:50:00,
2013-08-28 08:55:00,67.4,67.4,29.89,ENE,71,0.0,0.0,100,0.00,,,0.00,VWS V12.08,2013-08-28 12:55:00,
2013-08-28 09:00:00,68.4,68.1,29.89,ENE,71,0.0,0.0,99,0.00,,,0.00,VWS V12.08,2013-08-28 13:00:00,
2013-08-28 09:05:00,69.3,67.5,29.89,SSE,150,0.0,0.0,94,0.00,,,0.00,VWS V12.08,2013-08-28 13:05:00,
2013-08-28 09:10:00,69.9,67.8,29.89,SSE,150,0.0,0.0,93,0.00,,,0.00,VWS V12.08,2013-08-28 13:10:00,
2013-08-28 09:15:00,70.9,68.2,29.89,ENE,62,0.0,0.0,91,0.00,,,0.00,VWS V12.08,2013-08-28 13:15:00,
2013-08-28 09:20:00,71.5,68.1,29.89,West,261,0.0,0.0,89,0.00,,,0.00,VWS V12.08,2013-08-28 13:20:00,
2013-08-28 09:25:00,71.5,67.4,29.89,WSW,239,0.0,0.0,87,0.00,,,0.00,VWS V12.08,2013-08-28 13:25:00,
2013-08-28 09:30:00,71.3,67.6,29.89,WSW,237,0.0,0.0,88,0.00,,,0.00,VWS V12.08,2013-08-28 13:30:00,
2013-08-28 09:35:00,71.6,67.5,29.89,SSW,213,0.0,0.0,87,0.00,,,0.00,VWS V12.08,2013-08-28 13:35:00,
2013-08-28 09:40:00,72.1,67.7,29.89,SW,223,0.0,0.0,86,0.00,,,0.00,VWS V12.08,2013-08-28 13:40:00,
2013-08-28 09:45:00,72.5,67.7,29.89,SW,223,0.0,0.0,85,0.00,,CLR,0.00,VWS V12.08,2013-08-28 13:45:00,
2013-08-28 09:50:00,73.0,67.9,29.89,SW,223,0.0,0.0,84,0.00,,CLR,0.00,VWS V12.08,2013-08-28 13:50:00,
2013-08-28 09:55:00,73.5,68.0,29.89,SW,223,0.0,0.0,83,0.00,,CLR,0.00,VWS V12.08,2013-08-28 13:55:00,
2013-08-28 10:00:00,74.0,68.2,29.89,SW,223,0.0,0.0,82,0.00,,CLR,0.00,VWS V12.08,2013-08-28 14:00:00,
2013-08-28 10:05:00,74.6,68.8,29.89,SW,224,0.0,0.0,82,0.00,,CLR,0.00,VWS V12.08,2013-08-28 14:05:00,
2013-08-28 10:10:00,75.1,68.5,29.89,ENE,66,0.0,0.0,80,0.00,,CLR,0.00,VWS V12.08,2013-08-28 14:10:00,
2013-08-28 10:15:00,75.8,68.5,29.89,ENE,66,0.0,0.0,78,0.00,,CLR,0.00,VWS V12.08,2013-08-28 14:15:00,
2013-08-28 10:20:00,76.3,68.9,29.89,ENE,66,0.0,0.0,78,0.00,,CLR,0.00,VWS V12.08,2013-08-28 14:20:00,
2013-08-28 10:25:00,77.0,69.2,29.89,ENE,68,0.0,0.0,77,0.00,,CLR,0.00,VWS V12.08,2013-08-28 14:25:00,
2013-08-28 10:30:00,77.6,69.4,29.89,ENE,66,0.0,0.0,76,0.00,,CLR,0.00,VWS V12.08,2013-08-28 14:30:00,
2013-08-28 10:35:00,77.7,69.9,29.89,East,85,0.0,0.0,77,0.00,,CLR,0.00,VWS V12.08,2013-08-28 14:35:00,
2013-08-28 10:40:00,77.6,69.4,29.89,East,85,0.0,0.0,76,0.00,,CLR,0.00,VWS V12.08,2013-08-28 14:40:00,
2013-08-28 10:45:00,77.4,69.2,29.89,East,90,0.0,0.0,76,0.00,,OVC090,0.00,VWS V12.08,2013-08-28 14:45:00,
2013-08-28 10:50:00,77.7,69.5,29.89,ESE,106,0.0,0.0,76,0.00,,OVC090,0.00,VWS V12.08,2013-08-28 14:50:00,
2013-08-28 10:55:00,78.8,70.2,29.89,ENE,75,2.0,5.0,75,0.00,,OVC090,0.00,VWS V12.08,2013-08-28 14:55:00,
2013-08-28 11:00:00,79.0,70.0,29.88,ENE,61,2.0,3.0,74,0.00,,OVC090,0.00,VWS V12.08,2013-08-28 15:00:00,
2013-08-28 11:05:00,79.8,69.6,29.88,ENE,62,0.0,0.0,71,0.00,,OVC090,0.00,VWS V12.08,2013-08-28 15:05:00,
2013-08-28 11:10:00,79.9,70.1,29.88,ENE,68,0.0,3.0,72,0.00,,OVC090,0.00,VWS V12.08,2013-08-28 15:10:00,
2013-08-28 11:15:00,80.5,69.8,29.87,ENE,68,0.0,0.0,70,0.00,,OVC090,0.00,VWS V12.08,2013-08-28 15:15:00,
2013-08-28 11:20:00,81.2,70.1,29.87,ENE,68,0.0,2.0,69,0.00,,OVC090,0.00,VWS V12.08,2013-08-28 15:20:00,
2013-08-28 11:25:00,81.6,69.2,29.87,East,83,0.0,1.0,66,0.00,,OVC090,0.00,VWS V12.08,2013-08-28 15:25:00,
2013-08-28 11:30:00,81.1,69.6,29.87,East,89,2.0,4.0,68,0.00,,OVC090,0.00,VWS V12.08,2013-08-28 15:30:00,
2013-08-28 11:35:00,80.5,69.0,29.87,East,97,0.0,0.0,68,0.00,,OVC090,0.00,VWS V12.08,2013-08-28 15:35:00,
2013-08-28 11:40:00,81.2,70.1,29.87,East,97,3.0,3.0,69,0.00,,BKN100,0.00,VWS V12.08,2013-08-28 15:40:00,
2013-08-28 11:45:00,81.6,68.2,29.87,East,82,0.0,0.0,64,0.00,,BKN100,0.00,VWS V12.08,2013-08-28 15:45:00,
2013-08-28 11:50:00,81.6,68.7,29.87,East,82,0.0,0.0,65,0.00,,BKN100,0.00,VWS V12.08,2013-08-28 15:50:00,
2013-08-28 11:55:00,81.8,69.3,29.87,ENE,72,3.0,6.0,66,0.00,,BKN100,0.00,VWS V12.08,2013-08-28 15:55:00,
2013-08-28 12:00:00,81.8,68.0,29.86,ENE,75,0.0,0.0,63,0.00,,BKN100,0.00,VWS V12.08,2013-08-28 16:00:00,
2013-08-28 12:05:00,81.8,69.3,29.86,ENE,78,0.0,3.0,66,0.00,,BKN100,0.00,VWS V12.08,2013-08-28 16:05:00,
2013-08-28 12:10:00,82.0,69.1,29.86,SSW,203,3.0,3.0,65,0.00,,BKN100,0.00,VWS V12.08,2013-08-28 16:10:00,
2013-08-28 12:15:00,82.2,68.4,29.85,SSW,202,0.0,2.0,63,0.00,,BKN100,0.00,VWS V12.08,2013-08-28 16:15:00,
2013-08-28 12:20:00,82.8,67.5,29.85,ENE,65,0.0,3.0,60,0.00,,BKN100,0.00,VWS V12.08,2013-08-28 16:20:00,
2013-08-28 12:25:00,82.4,66.2,29.85,SE,133,0.0,0.0,58,0.00,,BKN100,0.00,VWS V12.08,2013-08-28 16:25:00,
2013-08-28 12:31:00,82.6,66.8,29.85,SE,136,0.0,2.0,59,0.00,,BKN100,0.00,VWS V12.08,2013-08-28 16:31:00,
2013-08-28 12:36:00,83.2,68.4,29.85,SSW,209,2.0,3.0,61,0.00,,BKN100,0.00,VWS V12.08,2013-08-28 16:36:00,
2013-08-28 12:41:00,84.1,67.7,29.85,SW,230,1.0,2.0,58,0.00,,CLR,0.00,VWS V12.08,2013-08-28 16:41:00,
2013-08-28 12:46:00,84.3,67.4,29.84,SW,230,0.0,0.0,57,0.00,,CLR,0.00,VWS V12.08,2013-08-28 16:46:00,
2013-08-28 12:51:00,84.7,66.8,29.84,ENE,66,0.0,2.0,55,0.00,,CLR,0.00,VWS V12.08,2013-08-28 16:51:00,
2013-08-28 12:56:00,84.9,67.5,29.84,ENE,76,0.0,2.0,56,0.00,,CLR,0.00,VWS V12.08,2013-08-28 16:56:00,
2013-08-28 13:01:00,85.1,68.2,29.84,ENE,78,0.0,0.0,57,0.00,,CLR,0.00,VWS V12.08,2013-08-28 17:01:00,
2013-08-28 13:06:00,84.9,65.9,29.84,SW,227,0.0,3.0,53,0.00,,CLR,0.00,VWS V12.08,2013-08-28 17:06:00,
2013-08-28 13:11:00,84.9,66.9,29.84,SE,133,0.0,2.0,55,0.00,,CLR,0.00,VWS V12.08,2013-08-28 17:11:00,
2013-08-28 13:16:00,84.3,66.9,29.84,SE,133,0.0,1.0,56,0.00,,CLR,0.00,VWS V12.08,2013-08-28 17:16:00,
2013-08-28 13:21:00,84.9,66.9,29.84,SE,136,2.0,2.0,55,0.00,,CLR,0.00,VWS V12.08,2013-08-28 17:21:00,
2013-08-28 13:26:00,85.3,66.8,29.84,ENE,75,0.0,1.0,54,0.00,,CLR,0.00,VWS V12.08,2013-08-28 17:26:00,
2013-08-28 13:31:00,85.9,67.3,29.84,ENE,76,0.0,0.0,54,0.00,,CLR,0.00,VWS V12.08,2013-08-28 17:31:00,
2013-08-28 13:36:00,86.3,67.2,29.84,East,86,1.0,3.0,53,0.00,,CLR,0.00,VWS V12.08,2013-08-28 17:36:00,
2013-08-28 13:41:00,85.9,65.7,29.84,East,86,1.0,2.0,51,0.00,,CLR,0.00,VWS V12.08,2013-08-28 17:41:00,
2013-08-28 13:46:00,85.5,66.4,29.84,ESE,110,0.0,0.0,53,0.00,,CLR,0.00,VWS V12.08,2013-08-28 17:46:00,
2013-08-28 13:51:00,85.9,68.4,29.84,ESE,109,0.0,0.0,56,0.00,,CLR,0.00,VWS V12.08,2013-08-28 17:51:00,
2013-08-28 13:56:00,86.5,67.9,29.84,ESE,109,0.0,0.0,54,0.00,,CLR,0.00,VWS V12.08,2013-08-28 17:56:00,
2013-08-28 14:01:00,86.3,66.1,29.83,ESE,109,0.0,0.0,51,0.00,,CLR,0.00,VWS V12.08,2013-08-28 18:01:00,
2013-08-28 14:06:00,86.5,67.9,29.83,ESE,107,0.0,0.0,54,0.00,,CLR,0.00,VWS V12.08,2013-08-28 18:06:00,
2013-08-28 14:11:00,87.2,68.0,29.83,ESE,107,0.0,0.0,53,0.00,,CLR,0.00,VWS V12.08,2013-08-28 18:11:00,
2013-08-28 14:16:00,87.0,65.6,29.83,ESE,107,0.0,2.0,49,0.00,,CLR,0.00,VWS V12.08,2013-08-28 18:16:00,
2013-08-28 14:21:00,85.9,67.3,29.83,ESE,107,0.0,1.0,54,0.00,,CLR,0.00,VWS V12.08,2013-08-28 18:21:00,
2013-08-28 14:26:00,85.3,67.8,29.83,ESE,107,0.0,0.0,56,0.00,,CLR,0.00,VWS V12.08,2013-08-28 18:26:00,
2013-08-28 14:31:00,85.5,67.5,29.83,ESE,109,0.0,1.0,55,0.00,,CLR,0.00,VWS V12.08,2013-08-28 18:31:00,
2013-08-28 14:36:00,85.7,67.7,29.83,ESE,107,0.0,0.0,55,0.00,,CLR,0.00,VWS V12.08,2013-08-28 18:36:00,
2013-08-28 14:41:00,85.3,65.1,29.83,ESE,107,1.0,1.0,51,0.00,,FEW046,0.00,VWS V12.08,2013-08-28 18:41:00,
2013-08-28 14:46:00,84.7,66.2,29.82,ESE,107,0.0,0.0,54,0.00,,FEW046,0.00,VWS V12.08,2013-08-28 18:46:00,
2013-08-28 14:51:00,84.9,65.3,29.82,ESE,107,0.0,0.0,52,0.00,,FEW046,0.00,VWS V12.08,2013-08-28 18:51:00,
2013-08-28 14:56:00,85.1,68.2,29.82,ESE,107,0.0,0.0,57,0.00,,FEW046,0.00,VWS V12.08,2013-08-28 18:56:00,
2013-08-28 15:01:00,85.1,68.7,29.81,ESE,107,0.0,0.0,58,0.00,,FEW046,0.00,VWS V12.08,2013-08-28 19:01:00,
2013-08-28 15:06:00,84.9,71.4,29.81,ESE,107,0.0,0.0,64,0.00,,FEW046,0.00,VWS V12.08,2013-08-28 19:06:00,
2013-08-28 15:11:00,84.9,70.9,29.81,ESE,107,0.0,0.0,63,0.00,,FEW046,0.00,VWS V12.08,2013-08-28 19:11:00,
2013-08-28 15:16:00,84.7,68.3,29.82,ESE,109,0.0,0.0,58,0.00,,FEW046,0.00,VWS V12.08,2013-08-28 19:16:00,
2013-08-28 15:21:00,84.5,68.1,29.82,SW,216,3.0,3.0,58,0.00,,FEW046,0.00,VWS V12.08,2013-08-28 19:21:00,
2013-08-28 15:26:00,84.3,67.4,29.82,SW,216,0.0,2.0,57,0.00,,FEW046,0.00,VWS V12.08,2013-08-28 19:26:00,
2013-08-28 15:31:00,84.5,66.6,29.82,SW,216,0.0,2.0,55,0.00,,FEW046,0.00,VWS V12.08,2013-08-28 19:31:00,
2013-08-28 15:36:00,84.7,67.3,29.82,SW,217,0.0,3.0,56,0.00,,FEW046,0.00,VWS V12.08,2013-08-28 19:36:00,
2013-08-28 15:41:00,84.9,68.5,29.82,SW,217,0.0,0.0,58,0.00,,FEW050,0.00,VWS V12.08,2013-08-28 19:41:00,
2013-08-28 15:46:00,84.7,67.8,29.81,SW,216,0.0,0.0,57,0.00,,FEW050,0.00,VWS V12.08,2013-08-28 19:46:00,
2013-08-28 15:51:00,84.5,70.5,29.81,SW,217,0.0,0.0,63,0.00,,FEW050,0.00,VWS V12.08,2013-08-28 19:51:00,
2013-08-28 15:56:00,84.1,71.1,29.81,SW,217,0.0,0.0,65,0.00,,FEW050,0.00,VWS V12.08,2013-08-28 19:56:00,
2013-08-28 16:01:00,84.0,73.2,29.81,SW,217,0.0,0.0,70,0.00,,FEW050,0.00,VWS V12.08,2013-08-28 20:01:00,
2013-08-28 16:06:00,83.8,73.8,29.81,SW,217,0.0,0.0,72,0.00,,FEW050,0.00,VWS V12.08,2013-08-28 20:06:00,
2013-08-28 16:12:00,83.8,73.8,29.81,SW,217,0.0,0.0,72,0.00,,FEW050,0.00,VWS V12.08,2013-08-28 20:12:00,
2013-08-28 16:17:00,83.2,68.8,29.81,SSW,213,1.0,2.0,62,0.00,,FEW050,0.00,VWS V12.08,2013-08-28 20:17:00,
2013-08-28 16:22:00,83.4,66.6,29.81,SSW,213,3.0,3.0,57,0.00,,FEW050,0.00,VWS V12.08,2013-08-28 20:22:00,
2013-08-28 16:27:00,83.6,66.3,29.81,SSW,213,0.0,0.0,56,0.00,,FEW050,0.00,VWS V12.08,2013-08-28 20:27:00,
2013-08-28 16:32:00,83.8,65.9,29.81,SSW,209,0.0,1.0,55,0.00,,FEW050,0.00,VWS V12.08,2013-08-28 20:32:00,
2013-08-28 16:37:00,84.0,66.1,29.81,SSW,209,0.0,0.0,55,0.00,,FEW050,0.00,VWS V12.08,2013-08-28 20:37:00,
2013-08-28 16:42:00,84.1,66.7,29.81,SSW,209,0.0,0.0,56,0.00,,BKN055,0.00,VWS V12.08,2013-08-28 20:42:00,
2013-08-28 16:47:00,84.3,67.9,29.80,SSW,209,0.0,0.0,58,0.00,,BKN055,0.00,VWS V12.08,2013-08-28 20:47:00,
2013-08-28 16:52:00,84.1,72.0,29.80,SSW,209,0.0,0.0,67,0.00,,BKN055,0.00,VWS V12.08,2013-08-28 20:52:00,
2013-08-28 16:57:00,83.4,71.7,29.81,SSW,209,0.0,0.0,68,0.00,,BKN055,0.00,VWS V12.08,2013-08-28 20:57:00,
2013-08-28 17:02:00,82.4,72.1,29.81,SSW,209,0.0,0.0,71,0.00,,BKN055,0.00,VWS V12.08,2013-08-28 21:02:00,
2013-08-28 17:07:00,81.4,71.5,29.81,SSW,209,0.0,0.0,72,0.00,,BKN055,0.00,VWS V12.08,2013-08-28 21:07:00,
2013-08-28 17:12:00,80.5,71.5,29.81,SSW,209,0.0,0.0,74,0.00,,BKN055,0.00,VWS V12.08,2013-08-28 21:12:00,
2013-08-28 17:17:00,79.8,70.8,29.81,SSW,209,0.0,0.0,74,0.00,,BKN055,0.00,VWS V12.08,2013-08-28 21:17:00,
2013-08-28 17:22:00,79.6,71.4,29.81,SSW,209,0.0,0.0,76,0.00,,BKN055,0.00,VWS V12.08,2013-08-28 21:22:00,
2013-08-28 17:27:00,79.4,71.9,29.81,SSW,209,0.0,0.0,78,0.00,,BKN055,0.00,VWS V12.08,2013-08-28 21:27:00,
2013-08-28 17:32:00,79.0,71.9,29.81,SSW,209,0.0,0.0,79,0.00,,BKN055,0.00,VWS V12.08,2013-08-28 21:32:00,
2013-08-28 17:37:00,79.0,73.0,29.81,SSW,209,0.0,0.0,82,0.00,,BKN055,0.00,VWS V12.08,2013-08-28 21:37:00,
2013-08-28 17:42:00,78.8,73.2,29.82,SSW,209,0.0,0.0,83,0.00,,,0.00,VWS V12.08,2013-08-28 21:42:00,
2013-08-28 17:47:00,78.6,73.7,29.82,SSW,209,2.0,2.0,85,0.00,,,0.00,VWS V12.08,2013-08-28 21:47:00,
2013-08-28 17:52:00,78.1,72.5,29.82,SW,233,2.0,6.0,83,0.00,,,0.00,VWS V12.08,2013-08-28 21:52:00,
2013-08-28 17:57:00,77.7,73.2,29.83,SW,233,1.0,1.0,86,0.00,,,0.00,VWS V12.08,2013-08-28 21:57:00,
2013-08-28 18:02:00,77.7,73.2,29.83,WSW,241,0.0,0.0,86,0.00,,,0.00,VWS V12.08,2013-08-28 22:02:00,
2013-08-28 18:07:00,77.4,72.2,29.83,SW,230,0.0,6.0,84,0.00,,,0.00,VWS V12.08,2013-08-28 22:07:00,
2013-08-28 18:12:00,77.2,72.3,29.84,WSW,244,2.0,2.0,85,0.00,,,0.00,VWS V12.08,2013-08-28 22:12:00,
2013-08-28 18:17:00,76.8,70.2,29.84,ENE,73,1.0,2.0,80,0.00,,,0.00,VWS V12.08,2013-08-28 22:17:00,
2013-08-28 18:22:00,76.5,69.5,29.84,ENE,73,0.0,0.0,79,0.00,,,0.00,VWS V12.08,2013-08-28 22:22:00,
2013-08-28 18:27:00,76.3,68.2,29.86,ENE,73,0.0,0.0,76,0.00,,,0.00,VWS V12.08,2013-08-28 22:27:00,
2013-08-28 18:32:00,76.5,68.4,29.86,NE,51,2.0,7.0,76,0.00,,,0.00,VWS V12.08,2013-08-28 22:32:00,
2013-08-28 18:37:00,76.5,67.6,29.86,NE,51,0.0,0.0,74,0.00,,,0.00,VWS V12.08,2013-08-28 22:37:00,
2013-08-28 18:42:00,76.5,67.2,29.86,NE,51,0.0,3.0,73,0.00,,,0.00,VWS V12.08,2013-08-28 22:42:00,
2013-08-28 18:47:00,76.3,67.8,29.86,NE,40,0.0,4.0,75,0.00,,,0.00,VWS V12.08,2013-08-28 22:47:00,
2013-08-28 18:52:00,76.3,67.0,29.86,East,99,3.0,3.0,73,0.00,,,0.00,VWS V12.08,2013-08-28 22:52:00,
2013-08-28 18:57:00,76.0,65.9,29.87,NE,55,3.0,5.0,71,0.00,,,0.00,VWS V12.08,2013-08-28 22:57:00,
2013-08-28 19:02:00,75.6,65.9,29.87,ENE,68,6.0,8.0,72,0.00,,,0.00,VWS V12.08,2013-08-28 23:02:00,
2013-08-28 19:07:00,75.1,66.2,29.87,East,82,5.0,7.0,74,0.00,,,0.00,VWS V12.08,2013-08-28 23:07:00,
2013-08-28 19:12:00,74.7,66.3,29.87,ENE,75,0.0,0.0,75,0.00,,,0.00,VWS V12.08,2013-08-28 23:12:00,
2013-08-28 19:17:00,74.2,65.8,29.87,ENE,58,2.0,3.0,75,0.00,,,0.00,VWS V12.08,2013-08-28 23:17:00,
2013-08-28 19:22:00,73.7,65.7,29.87,ENE,65,0.0,2.0,76,0.00,,,0.00,VWS V12.08,2013-08-28 23:22:00,
2013-08-28 19:27:00,73.5,65.9,29.89,ENE,65,0.0,0.0,77,0.00,,,0.00,VWS V12.08,2013-08-28 23:27:00,
2013-08-28 19:32:00,73.2,66.7,29.89,East,83,2.0,3.0,80,0.00,,,0.00,VWS V12.08,2013-08-28 23:32:00,
2013-08-28 19:38:00,73.0,67.9,29.89,East,83,0.0,1.0,84,0.03,,,0.05,VWS V12.08,2013-08-28 23:38:00,
2013-08-28 19:43:00,71.8,68.1,29.90,ENE,76,2.0,3.0,88,0.11,,SCT049,0.11,VWS V12.08,2013-08-28 23:43:00,
2013-08-28 19:48:00,70.9,68.5,29.90,ENE,76,0.0,0.0,92,0.12,,SCT049,0.12,VWS V12.08,2013-08-28 23:48:00,
2013-08-28 19:53:00,70.4,68.3,29.90,ENE,76,0.0,0.0,93,0.12,,SCT049,0.12,VWS V12.08,2013-08-28 23:53:00,
2013-08-28 19:58:00,70.1,68.6,29.90,ENE,76,0.0,0.0,95,0.12,,SCT049,0.12,VWS V12.08,2013-08-28 23:58:00,
2013-08-28 20:03:00,69.9,69.0,29.90,ENE,76,0.0,0.0,97,0.12,,BKN060,0.12,VWS V12.08,2013-08-29 00:03:00,
2013-08-28 20:08:00,69.9,69.3,29.90,ENE,76,0.0,0.0,98,0.12,,BKN060,0.12,VWS V12.08,2013-08-29 00:08:00,
2013-08-28 20:13:00,69.8,69.2,29.90,ENE,75,0.0,0.0,98,0.12,,BKN060,0.12,VWS V12.08,2013-08-29 00:13:00,
2013-08-28 20:18:00,69.4,69.1,29.90,ENE,76,0.0,0.0,99,0.12,,BKN060,0.12,VWS V12.08,2013-08-29 00:18:00,
2013-08-28 20:23:00,69.4,69.4,29.90,ENE,76,0.0,0.0,100,0.12,,OVC060,0.12,VWS V12.08,2013-08-29 00:23:00,
2013-08-28 20:28:00,69.3,69.3,29.92,ENE,76,0.0,0.0,100,0.12,,OVC060,0.12,VWS V12.08,2013-08-29 00:28:00,
2013-08-28 20:33:00,68.9,68.9,29.92,ENE,76,0.0,1.0,100,0.14,,OVC060,0.14,VWS V12.08,2013-08-29 00:33:00,
2013-08-28 20:38:00,68.9,68.9,29.92,ENE,76,0.0,0.0,100,0.15,,OVC060,0.15,VWS V12.08,2013-08-29 00:38:00,
2013-08-28 20:43:00,68.8,68.8,29.91,ENE,75,2.0,3.0,100,0.10,,OVC060,0.15,VWS V12.08,2013-08-29 00:43:00,
2013-08-28 20:48:00,68.6,68.6,29.91,ENE,75,0.0,0.0,100,0.03,,OVC060,0.15,VWS V12.08,2013-08-29 00:48:00,
2013-08-28 20:53:00,68.4,68.4,29.91,ENE,75,0.0,2.0,100,0.03,,OVC060,0.15,VWS V12.08,2013-08-29 00:53:00,
2013-08-28 20:58:00,68.3,68.3,29.92,ENE,75,0.0,0.0,100,0.03,,OVC060,0.15,VWS V12.08,2013-08-29 00:58:00,
2013-08-28 21:03:00,68.3,68.3,29.92,ENE,75,0.0,0.0,100,0.03,,OVC060,0.15,VWS V12.08,2013-08-29 01:03:00,
2013-08-28 21:08:00,68.3,68.3,29.92,ENE,75,0.0,0.0,100,0.03,,OVC060,0.15,VWS V12.08,2013-08-29 01:08:00,
2013-08-28 21:13:00,68.1,68.1,29.92,ENE,75,0.0,0.0,100,0.03,,OVC060,0.15,VWS V12.08,2013-08-29 01:13:00,
2013-08-28 21:18:00,67.9,67.9,29.92,ENE,75,0.0,0.0,100,0.03,,OVC060,0.15,VWS V12.08,2013-08-29 01:18:00,
2013-08-28 21:23:00,67.9,67.9,29.92,ENE,75,0.0,0.0,100,0.03,,OVC060,0.15,VWS V12.08,2013-08-29 01:23:00,
2013-08-28 21:28:00,67.9,67.9,29.92,ENE,75,0.0,0.0,100,0.03,,OVC060,0.15,VWS V12.08,2013-08-29 01:28:00,
2013-08-28 21:33:00,67.9,67.9,29.92,ENE,75,0.0,0.0,100,0.03,,OVC060,0.15,VWS V12.08,2013-08-29 01:33:00,
2013-08-28 21:38:00,67.9,67.9,29.92,ENE,75,0.0,0.0,100,0.03,,OVC060,0.15,VWS V12.08,2013-08-29 01:38:00,
2013-08-28 21:43:00,67.9,67.9,29.92,ENE,75,0.0,0.0,100,0.00,,-RA,0.15,VWS V12.08,2013-08-29 01:43:00,
2013-08-28 21:48:00,67.9,67.9,29.92,ENE,75,0.0,0.0,100,0.00,,-RA,0.15,VWS V12.08,2013-08-29 01:48:00,
2013-08-28 21:53:00,67.8,67.8,29.92,ENE,75,0.0,0.0,100,0.00,,-RA,0.15,VWS V12.08,2013-08-29 01:53:00,
2013-08-28 21:58:00,67.8,67.8,29.93,ENE,73,0.0,0.0,100,0.00,,-RA,0.15,VWS V12.08,2013-08-29 01:58:00,
2013-08-28 22:03:00,67.8,67.8,29.93,ENE,75,0.0,0.0,100,0.00,,-RA,0.15,VWS V12.08,2013-08-29 02:03:00,
2013-08-28 22:08:00,67.6,67.6,29.93,ENE,75,0.0,0.0,100,0.00,,-RA,0.15,VWS V12.08,2013-08-29 02:08:00,
2013-08-28 22:13:00,67.6,67.6,29.94,ENE,75,0.0,0.0,100,0.00,,-RA,0.15,VWS V12.08,2013-08-29 02:13:00,
2013-08-28 22:18:00,67.6,67.6,29.94,ENE,75,0.0,0.0,100,0.00,,-RA,0.15,VWS V12.08,2013-08-29 02:18:00,
2013-08-28 22:23:00,67.4,67.4,29.94,ENE,75,0.0,0.0,100,0.00,,-RA,0.15,VWS V12.08,2013-08-29 02:23:00,
2013-08-28 22:28:00,67.3,67.3,29.94,ENE,75,0.0,0.0,100,0.00,,-RA,0.15,VWS V12.08,2013-08-29 02:28:00,
2013-08-28 22:33:00,67.1,67.1,29.94,ENE,75,0.0,0.0,100,0.00,,-RA,0.15,VWS V12.08,2013-08-29 02:33:00,
2013-08-28 22:38:00,67.1,67.1,29.94,ENE,75,0.0,0.0,100,0.00,,-RA,0.15,VWS V12.08,2013-08-29 02:38:00,
2013-08-28 22:43:00,67.1,67.1,29.94,ENE,75,0.0,0.0,100,0.01,,-RA,0.16,VWS V12.08,2013-08-29 02:43:00,
2013-08-28 22:48:00,67.1,67.1,29.94,ENE,75,0.0,0.0,100,0.01,,-RA,0.16,VWS V12.08,2013-08-29 02:48:00,
2013-08-28 22:53:00,66.9,66.9,29.94,ENE,75,0.0,0.0,100,0.01,,-RA,0.16,VWS V12.08,2013-08-29 02:53:00,
2013-08-28 22:59:00,67.1,67.1,29.94,ENE,75,0.0,0.0,100,0.01,,-RA,0.16,VWS V12.08,2013-08-29 02:59:00,
2013-08-28 23:04:00,66.9,66.9,29.94,ENE,75,0.0,0.0,100,0.01,,-RA,0.16,VWS V12.08,2013-08-29 03:04:00,
2013-08-28 23:09:00,66.8,66.8,29.94,ENE,75,0.0,0.0,100,0.01,,-RA,0.16,VWS V12.08,2013-08-29 03:09:00,
2013-08-28 23:14:00,66.6,66.6,29.94,ENE,75,0.0,0.0,100,0.01,,-RA,0.16,VWS V12.08,2013-08-29 03:14:00,
2013-08-28 23:19:00,66.4,66.4,29.94,ENE,75,0.0,0.0,100,0.01,,-RA,0.16,VWS V12.08,2013-08-29 03:19:00,
2013-08-28 23:24:00,66.4,66.4,29.94,ENE,75,0.0,0.0,100,0.01,,-RA,0.16,VWS V12.08,2013-08-29 03:24:00,
2013-08-28 23:29:00,66.3,66.3,29.93,ENE,75,0.0,0.0,100,0.01,,-RA,0.16,VWS V12.08,2013-08-29 03:29:00,
2013-08-28 23:34:00,66.1,66.1,29.93,ENE,75,0.0,0.0,100,0.01,,-RA,0.16,VWS V12.08,2013-08-29 03:34:00,
2013-08-28 23:39:00,66.1,66.1,29.93,ENE,75,0.0,0.0,100,0.01,,-RA,0.16,VWS V12.08,2013-08-29 03:39:00,
2013-08-28 23:44:00,66.1,66.1,29.93,SW,236,0.0,2.0,100,0.01,,CLR,0.16,VWS V12.08,2013-08-29 03:44:00,
2013-08-28 23:49:00,66.1,66.1,29.93,SW,236,0.0,1.0,100,0.00,,CLR,0.16,VWS V12.08,2013-08-29 03:49:00,
2013-08-28 23:54:00,66.0,66.0,29.93,SW,236,0.0,0.0,100,0.00,,CLR,0.16,VWS V12.08,2013-08-29 03:54:00,
2013-08-28 23:59:00,66.0,66.0,29.94,WSW,237,0.0,0.0,100,0.00,,CLR,0.00,VWS V12.08,2013-08-29 03:59:00,